Location: Bakov nad Jizerou
(50.4784°N, 14.9394°E)
Time: 23:32:01
(UTC+00:00)

USA 215 - Pass Details

Date: 16 June 2021
Orbit: 1100 x 1107 km, 123.0° (Epoch: 22 June)

Event Time Altitude Azimuth Distance (km) Brightness Sun altitude
Rises 21:34:00 0° 57° (ENE) 3,924 6.3 -13.7°
Reaches altitude 10° 21:36:33 10° 61° (ENE) 2,964 5.6 -13.8°
Maximum altitude 21:42:59 57° 140° (SE) 1,280 3.3 -14.1°
Drops below altitude 10° 21:49:23 10° 218° (SW) 2,953 5.2 -14.5°
Sets 21:51:55 0° 223° (SW) 3,908 5.8 -14.6°
